星链-37090(STARLINK-37090)

导读

STARLINK-37090(NORAD编号68193)是美国SpaceX公司星链(Starlink)星座中的一颗低轨互联网卫星,星链项目旨在通过部署近地轨道卫星群,为全球提供高速低延迟宽带互联网服务,重点覆盖地面基础设施难以抵达的偏远区域。 该卫星运行于近地轨道,遵循星链星座标准设计,采用紧凑平板构型适配批量发射,属于星链大规模组网中的一员,目前在轨运行,承担全球卫星互联网接入服务功能,和其他星链卫星共同推进星座全球覆盖的建设目标。

Basic Information
目录编号:
68193
目录名称:
STARLINK-37090
国际标识:
2026-050AC
轨道中心:
EARTH
卫星名称:
星链-37090
卫星全名:
星链-37090(STARLINK-37090)
卫星状态:
在轨 (已飞行174 天)
发射日期:
2026-03-14 UTC
国别 :
美国 (US)
星等 :
--
Orbit Information
数据来源 国际轨道数据
星历时间: 2026-09-04T01:48:37+0800
12小时前
查看轨道信息
半长轴: 6840.865km
偏心率: 0.0001563
轨道倾角: 53.158°
近地点辐角 86.650°
升交点赤经 156.172°
平近点角 273.469°
近地点: 461.658km
远地点: 463.798km
周期: 93.848分钟
每日圈数: 15.34392
Detailed Information
固有亮度:
5
最大亮度:
2.5
卫星平台:
Starlink V1.0
覆盖范围:
全球
运营商:
太空探索技术公司
运营商所在国:
美国
制造商(研发单位):
太空探索技术公司
制造商所在国:
美国
使用方式:
暂无
Satellite Introduction
Starlink 计划是 SpaceX 推出的全球卫星互联网项目,通过发射低轨道卫星,为全球尤其是偏远地区提供高速、低延迟的互联网服务。自 2019 年起,Starlink 已部署数千颗卫星,旨在缩小全球数字鸿沟,推动互联网普及。该项目还为军事、航空等行业提供通信支持,带来广泛经济效益。
2D Orbit Map
3D Orbit Map
Orbit Altitude Analysis Chart
Orbit Inclination Analysis Chart
Orbit Comprehensive Analysis Chart
View Comprehensive Chart
Conjunction Data List
Event ID Objects TCA Miss Dist (km) Collision Risk Probability Collision Risk Index (CRI) Action
CDM_260905-044706-540106-819321
2026-09-05T
04:47:17+0000
1.832 km
极远距离
2.251541E-6 低风险 0.42
CDM_260904-131306-187006-819322
OBJECT B (61870)
2026-09-04T
13:13:36+0000
2.228 km
极远距离
2.200508E-6 低风险 0.42
CDM_260903-171502-077406-819323
2026-09-03T
17:15:21+0000
2.614 km
极远距离
1.533829E-6 低风险 0.39
CDM_260904-163305-301006-819321
2026-09-04T
16:33:57+0000
2.674 km
极远距离
1.380587E-6 低风险 0.38
CDM_260903-094305-389306-819321
2026-09-03T
09:43:45+0000
2.977 km
极远距离
9.771348E-7 极低风险 0.35
CDM_260905-012506-041206-819321
2026-09-05T
01:25:48+0000
2.303 km
极远距离
7.58574E-7 极低风险 0.33